This demonstration page uses our WeatherBlox Daily Observations layout. Learn more.

Hourly Observations for March 19, 2019

Temp ( °F °C ) Dew Point ( °F °C ) Humidity (%) Winds ( mph kmh ) Pressure ( in mb ) Visibility ( mi km ) Precip ( " mm )
12:15 am 00:15 Cloudy 38 3.5 33 0.5 81 81 ESE 8 13 30.29 1026 10 16.0934 0 0
12:35 am 00:35 Cloudy 38 3.3 32 0.2 80 80 ESE 9 15 30.29 1026 10 16.0934 0 0
12:55 am 00:55 Cloudy 38 3.2 33 0.3 82 82 ESE 10 17 30.29 1026 10 16.0934 0 0
1:15 am 01:15 Cloudy 38 3.1 32 0.1 81 81 ESE 10 17 30.28 1025 10 16.0934 0 0
1:35 am 01:35 Cloudy 37 3 33 0.6 84 84 E 3 6 30.29 1026 10 16.0934 0 0
1:55 am 01:55 Cloudy 37 3 33 0.4 83 83 E 9 15 30.28 1025 10 16.0934 0 0
2:15 am 02:15 Cloudy 37 2.6 33 0.5 86 86 ESE 10 17 30.27 1025 10 16.0934 0 0
2:35 am 02:35 Cloudy 37 2.6 33 0.3 85 85 ESE 7 11 30.27 1025 10 16.0934 0 0
2:55 am 02:55 Cloudy 36 2.3 32 0 85 85 E 8 13 30.27 1025 10 16.0934 0 0
3:15 am 03:15 Cloudy 36 2.1 32 0.1 87 87 ESE 9 15 30.27 1025 10 16.0934 0 0
3:35 am 03:35 Cloudy 36 2 32 0 87 87 ESE 8 13 30.26 1025 10 16.0934 0 0
3:55 am 03:55 Cloudy 36 2 32 0 87 87 ESE 10 17 30.25 1024 10 16.0934 0 0
4:15 am 04:15 Cloudy with Light Drizzle 35 1.8 32 0.2 89 89 SE 10 17 30.23 1024 10 16.0934 0 0
4:35 am 04:35 Cloudy with Light Drizzle 35 1.9 33 0.6 91 91 SE 9 15 30.22 1023 10 16.0934 0 0
4:55 am 04:55 Cloudy with Light Rain 36 2 34 1.1 94 94 SE 8 13 30.21 1023 10 16.0934 0 0
5:15 am 05:15 Cloudy 36 2.2 35 1.6 96 96 ESE 6 9 30.19 1022 10 16.0934 0 0
5:35 am 05:35 Cloudy 36 2.2 35 1.8 97 97 Calm 30.2 1023 10 16.0934 0 0
5:55 am 05:55 Cloudy 35 1.5 34 1.2 98 98 N 6 9 30.23 1024 10 16.0934 0 0
6:15 am 06:15 Cloudy 35 1.5 34 1.2 98 98 N 7 11 30.23 1024 10 16.0934 0 0
6:35 am 06:35 Cloudy with Light Rain 35 1.5 34 1.3 99 99 N 6 9 30.24 1024 7 11.26538 0 0
6:55 am 06:55 Cloudy with Light Rain 34 1.3 34 1.3 100 100 NNE 7 11 30.24 1024 7 11.26538 0 0
7:15 am 07:15 Cloudy with Rain 35 1.5 35 1.5 100 100 NNE 7 11 30.24 1024 4 6.43736 0.01 0.254
7:35 am 07:35 Cloudy with Rain 35 1.5 35 1.5 100 100 N 8 13 30.25 1024 3 4.82802 0.04 1.016
7:55 am 07:55 Cloudy with Light Rain 34 1.2 34 1.2 100 100 N 9 15 30.25 1025 4 6.43736 0.05 1.27
8:35 am 08:35 Cloudy with Light Rain 33 0.8 33 0.8 100 100 N 12 19 30.28 1025 3 4.82802 0.03 0.762
8:55 am 08:55 Cloudy with Light Snow 33 0.5 33 0.5 100 100 NNE 9 15 30.28 1025 2.5 4.02335 0.05 1.27
9:15 am 09:15 Cloudy with Light Rain 33 0.4 33 0.4 100 100 NE 8 13 30.28 1025 2 3.21868 0.01 0.254
9:35 am 09:35 Cloudy with Light Drizzle 33 0.5 33 0.5 100 100 ENE 9 15 30.28 1025 2.5 4.02335 0.01 0.254
9:55 am 09:55 Cloudy with Light Rain 33 0.7 33 0.7 100 100 ENE 9 15 30.28 1025 3 4.82802 0.01 0.254
10:15 am 10:15 Cloudy with Mist and Fog 34 0.9 34 0.9 100 100 E 10 17 30.28 1025 3 4.82802 0 0
10:35 am 10:35 Cloudy with Mist and Fog 35 1.4 35 1.4 100 100 E 10 17 30.27 1025 4 6.43736 0 0
10:55 am 10:55 Cloudy 36 2 36 2 100 100 ENE 13 20 30.27 1025 7 11.26538 0 0
11:15 am 11:15 Cloudy 36 2.1 36 2.1 100 100 ENE 10 17 30.28 1025 10 16.0934 0 0
11:35 am 11:35 Cloudy with Light Drizzle 36 2.2 36 2.2 100 100 E 8 13 30.27 1025 10 16.0934 0 0
11:55 am 11:55 Cloudy with Light Drizzle 37 2.6 37 2.6 100 100 ENE 10 17 30.26 1025 7 11.26538 0 0
12:15 pm 12:15 Cloudy 37 3 37 3 100 100 E 8 13 30.27 1025 10 16.0934 0 0
12:35 pm 12:35 Cloudy 38 3.1 38 3.1 100 100 E 9 15 30.26 1025 10 16.0934 0 0
12:55 pm 12:55 Cloudy 38 3.3 38 3.3 100 100 ENE 10 17 30.26 1025 10 16.0934 0 0
1:15 pm 13:15 Cloudy 38 3.3 38 3.3 100 100 E 9 15 30.26 1025 10 16.0934 0 0
1:35 pm 13:35 Cloudy 38 3.3 38 3.2 99 99 NE 7 11 30.26 1025 10 16.0934 0 0
1:55 pm 13:55 Cloudy 38 3.4 38 3.2 99 99 N 7 11 30.26 1025 10 16.0934 0 0
2:15 pm 14:15 Cloudy 38 3.4 38 3.2 99 99 N 7 11 30.26 1025 10 16.0934 0 0
2:35 pm 14:35 Cloudy with Mist and Fog 38 3.3 38 3.2 99 99 N 7 11 30.26 1025 5 8.0467 0 0
2:55 pm 14:55 Cloudy with Mist and Fog 38 3.4 38 3.4 100 100 NNE 6 9 30.25 1024 2.5 4.02335 0 0
3:15 pm 15:15 Cloudy with Mist and Fog 38 3.5 38 3.5 100 100 NNE 5 7 30.25 1024 4 6.43736 0 0
3:35 pm 15:35 Cloudy with Mist and Fog 38 3.6 38 3.5 99 99 N 6 9 30.25 1024 5 8.0467 0 0
3:55 pm 15:55 Cloudy with Mist and Fog 38 3.6 38 3.5 99 99 N 5 7 30.25 1024 4 6.43736 0 0
4:15 pm 16:15 Cloudy with Mist and Fog 38 3.5 38 3.5 100 100 N 8 13 30.26 1025 3 4.82802 0 0
4:35 pm 16:35 Cloudy 38 3.6 38 3.5 99 99 N 8 13 30.26 1025 7 11.26538 0 0
4:55 pm 16:55 Cloudy 38 3.5 38 3.3 99 99 NNE 10 17 30.26 1025 10 16.0934 0 0
5:15 pm 17:15 Cloudy 38 3.5 38 3.3 99 99 N 7 11 30.26 1025 10 16.0934 0 0
5:35 pm 17:35 Cloudy 38 3.3 38 3.3 100 100 N 6 9 30.26 1025 7 11.26538 0 0
6:15 pm 18:15 Cloudy 38 3.2 38 3.2 100 100 N 10 17 30.27 1025 7 11.26538 0 0
6:35 pm 18:35 Cloudy 38 3.2 38 3.2 100 100 N 9 15 30.28 1025 7 11.26538 0 0
6:55 pm 18:55 Cloudy 38 3.5 38 3.5 100 100 N 7 11 30.27 1025 10 16.0934 0 0
7:15 pm 19:15 Cloudy 38 3.5 38 3.3 99 99 N 8 13 30.27 1025 10 16.0934 0 0
7:35 pm 19:35 Cloudy 38 3.5 38 3.2 98 98 N 7 11 30.28 1025 10 16.0934 0 0
7:55 pm 19:55 Cloudy 38 3.3 38 3.2 99 99 N 6 9 30.28 1026 10 16.0934 0 0
8:15 pm 20:15 Cloudy 38 3.2 38 3.2 100 100 N 5 7 30.29 1026 10 16.0934 0 0
8:35 pm 20:35 Cloudy 37 3 37 3 100 100 N 3 6 30.3 1026 10 16.0934 0 0
8:55 pm 20:55 Cloudy 37 3 37 3 100 100 N 3 6 30.3 1026 10 16.0934 0 0
9:15 pm 21:15 Cloudy 37 3 37 3 100 100 NNW 3 6 30.3 1026 10 16.0934 0 0
9:35 pm 21:35 Cloudy 37 3 37 3 100 100 NNW 3 6 30.29 1026 10 16.0934 0 0
9:55 pm 21:55 Mostly Cloudy 36 2.3 36 2.3 100 100 NNW 3 6 30.3 1026 7 11.26538 0 0
10:15 pm 22:15 Mostly Cloudy 36 2 36 2 100 100 NNW 6 9 30.31 1026 7 11.26538 0 0
10:35 pm 22:35 Cloudy 36 2.2 36 2.2 100 100 N 7 11 30.3 1026 10 16.0934 0 0
10:55 pm 22:55 Mostly Cloudy 36 2.1 36 2.1 100 100 N 7 11 30.31 1026 10 16.0934 0 0
11:15 pm 23:15 Cloudy 36 2.1 36 2.1 100 100 NW 6 9 30.31 1026 10 16.0934 0 0
11:35 pm 23:35 Cloudy 36 2.2 36 2.2 100 100 NW 7 11 30.31 1027 10 16.0934 0 0
11:55 pm 23:55 Cloudy 35 1.7 35 1.7 100 100 NW 8 13 30.33 1027 10 16.0934 0 0

Powered by AerisWeather